Simultaneous Nadir Overpasses (SNOs) Predictions

Prediction of SNOs between METOP-B and NOAA-19 Satellite Orbit:

Table of predicted SNOs for the next 14.0 days since TLE Epoch: 4/19/2019
Index Date (METOP-B) Time (METOP-B) Lat,Lon (METOP-B) SZA (METOP-B ) Date (NOAA-19) Time (NOAA-19) Lat,Lon (NOAA-19) SZA (NOAA-19 ) Distance(km) Time Diff (sec)
1 04/30/2019 10:26:48 -79.17,-141.51 115.20 04/30/2019 10:25:35 -79.20,-141.49 115.19 2.58 73
2 04/30/2019 11:17:28 79.18, 25.87 64.80 04/30/2019 11:16:40 79.17, 25.97 64.79 2.39 48
3 04/30/2019 12:08:09 -79.20,-166.69 115.19 04/30/2019 12:07:35 -79.17,-166.76 115.23 3.18 34
4 04/30/2019 12:58:50 79.17, 0.43 64.76 04/30/2019 12:58:41 79.17, 0.43 64.77 0.82 9
5 04/30/2019 13:49:31 -79.18, 167.87 115.23 04/30/2019 13:49:36 -79.17, 167.71 115.25 3.39 5
6 04/30/2019 14:40:12 79.15, -25.01 64.72 04/30/2019 14:40:42 79.18, -25.10 64.75 3.29 30
7 04/30/2019 15:30:52 -79.17, 142.43 115.27 04/30/2019 15:31:35 -79.15, 142.45 115.28 2.57 43
8 04/30/2019 16:21:33 79.14, -50.45 64.68 04/30/2019 16:22:41 79.15, -50.36 64.71 2.25 68




NCC Satellite Simultaneous Nadir Overpasses (SNOs) Prediction Service
